User: anonymous   Login
Location: Unspecified
(0.0000°N, 0.0000°E)
Time: 00:22:59
(UTC+01:00)
Language:

Cosmos 2082 Rocket - Orbit

View from above orbital plane
View from above orbital plane
View from above satellite
View from above satellite

Ground track
Ground track

The orbit data is extracted from the following two-line orbital elements,

1 20625U 90046B   17050.47291756 -.00000042  00000-0  30951-5 0  9998
2 20625  71.0001  36.1936 0016732 284.0985  75.8278 14.14615689381182
Epoch (UTC): 19 February 2017 11:21:00
Eccentricity: 0.0016732
inclination: 71.0001°
perigee height: 831 km
apogee height: 856 km
right ascension of ascending node: 36.1936°
argument of perigee: 284.0985°
revolutions per day: 14.14615689
mean anomaly at epoch: 75.8278°
orbit number at epoch: 38118

The dashed part of the orbit path shows where the satellite is in the earth's shadow,  

DLR